Location: Boiro
(42.6475°N, 8.8834°W)
Time: 00:05:49
(UTC+01:00)

Tiros 1 - Pass Details

Date: 12 December 2021
Orbit: 629 x 664 km, 48.4° (Epoch: 18 January)

Event Time Altitude Azimuth Distance (km) Brightness Sun altitude
Rises 18:03:47 0° 257° (WSW) 2,909 12.3 -1.1°
Reaches altitude 10° 18:06:07 10° 261° (W) 2,005 11.1 -1.5°
Maximum altitude 18:10:40 59° 341° (NNW) 732 7.4 -2.2°
Drops below altitude 10° 18:15:16 10° 62° (ENE) 2,022 9.0 -2.9°
Enters shadow 18:16:42 - 64° (ENE) 2,569 9.5 -3.1°
Sets 18:17:39 0° 66° (ENE) 2,937 - -3.3°
